Regional Weather Roundup
Issued by NWS Kansas City/Pleasant Hill, MO

Home | Current Version | Previous Version | Graphics & Text | Print | Product List | Glossary Off
Versions: 1 2 3 4 5 6 7 8 9 10 11 12 13 14 15 16 17 18 19 20 21 22 23 24 25 26 27 28 29 30 31 32 33 34 35 36 37 38 39 40 41 42 43 44 45 46 47 48 49 50

216
ASUS43 KEAX 061110
RWREAX

WEATHER ROUNDUP FOR EASTERN KANSAS AND NORTHWEST MISSOURI
NATIONAL WEATHER SERVICE KANSAS CITY/PLEASANT HILL MO
500 AM CST SAT FEB 06 2016

KSZ040-057-103>105-MOZ028-029-037-043-061200-
...KANSAS CITY METROPOLITAN AREA...

CITY           SKY/WX    TMP DP  RH WIND       PRES   REMARKS
K.C. INTL      CLEAR     29  23  78 N5        30.25R WCI  24
K.C. DOWNTOWN  CLEAR     29  25  85 CALM      30.25S
LEES SUMMIT    PTCLDY    30  22  72 NW3       30.24S
OLATHE - IXD   CLEAR     25  22  88 W6        30.26R WCI  18
OLATHE - OJC   CLEAR     29  23  78 NW3       30.24S
LAWRENCE       CLEAR     25  22  88 NW7       30.27R WCI  17

$$

MOZ001>008-011>017-020>025-030>033-038>040-044>046-053-054-061200-
...NORTHERN AND CENTRAL MISSOURI...

CITY           SKY/WX    TMP DP  RH WIND       PRES   REMARKS
ST. JOSEPH     CLEAR     23  21  92 CALM      30.27R
MOSBY            N/A     27  25  93 NW5       30.26S WCI  21
WARRENSBURG    PTCLDY    32  23  69 S6        30.24S WCI  26
WHITEMAN AFB   CLEAR     31  21  68 SW8       30.23F WCI  23
CLINTON          N/A     34  23  64 S6        30.26S WCI  29
SEDALIA        CLEAR     35  20  54 S9        30.26S WCI  28
WARSAW         NOT AVBL
CHILLICOTHE      N/A     26  22  84 CALM      30.27R
KIRKSVILLE     CLEAR     25  17  72 CALM      30.25S

$$

MOZ041-047>049-056>058-063>065-088>090-097-061200-
...EASTERN AND SOUTHERN MISSOURI...

CITY           SKY/WX    TMP DP  RH WIND       PRES   REMARKS
ST. LOUIS INTL PTCLDY    30  21  69 SE5       30.30F WCI  25
SPIRIT OF STL  CLEAR     25  21  85 CALM      30.29F
COLUMBIA       MOCLDY    31  19  61 S7        30.25F WCI  24
JEFFERSON CITY PTCLDY    28  21  75 E6        30.28F WCI  22
ROLLA          CLOUDY    32  21  64 SW8       30.26S WCI  25
OSAGE BEACH    CLEAR     28  18  64 S3        30.27S
SPRINGFIELD    MOCLDY    29  17  61 S7        30.27R WCI  22
BRANSON        CLOUDY    37  14  38 CALM      30.29S
JOPLIN         PTCLDY    38  18  44 W5        30.30R WCI  34
WEST PLAINS    MOCLDY    33  14  45 SW3       30.30S

$$

IAZ060-094-KSZ022-034>040-054-083-096-NEZ052-066-093-061200-
...KANSAS...SOUTHEAST NEBRASKA AND IOWA...

CITY           SKY/WX    TMP DP  RH WIND       PRES   REMARKS
TOPEKA         CLEAR     28  23  81 W3        30.28R
MANHATTAN      CLEAR     23  23 100 CALM      30.30R
EMPORIA        CLEAR     25  22  88 W6        30.27S WCI  18
CHANUTE        PTCLDY    31  24  75 W7        30.28R WCI  24
WICHITA        CLEAR     27  23  85 NW8       30.30S WCI  19
OMAHA          CLOUDY    31  28  89 NW9       30.26R WCI  23
LINCOLN        CLEAR     22  20  92 SW3       30.27F FOG
FALLS CITY     CLEAR     27  25  92 W8        30.26S WCI  19
LAMONI         CLEAR     25  21  85 W6        30.22F WCI  18
DES MOINES     CLOUDY    30  26  85 SW3       30.23F

$$





USA.gov is the U.S. government's official web portal to all federal, state and local government web resources and services.